This is the latest recevied weather packets stored in our database for station/object WP4PW. If no packets are shown the sender has not sent any weather packets the latest 10 day(s).
| Time | Temp. | Humidity | Pressure | Rain* | Wind** | Luminosity | Snow |
|---|---|---|---|---|---|---|---|
| 1777499477 | 27.78° C | 86% | 1016.8 hPa | 0 mm | - | 42 W/m² | - |
| 1777499176 | 27.78° C | 86% | 1016.8 hPa | 0 mm | - | 47 W/m² | - |
| 1777498872 | 27.78° C | 86% | 1016.7 hPa | 0 mm | - | 56 W/m² | - |
| 1777498569 | 27.78° C | 85% | 1016.8 hPa | 0 mm | - | 64 W/m² | - |
| 1777498264 | 27.78° C | 84% | 1016.7 hPa | 0 mm | - | 74 W/m² | - |
| 1777497964 | 27.78° C | 84% | 1016.7 hPa | 0 mm | - | 78 W/m² | - |
| 1777497659 | 27.78° C | 84% | 1016.8 hPa | 0 mm | - | 83 W/m² | - |
| 1777497355 | 27.78° C | 85% | 1016.6 hPa | 0 mm | - | 93 W/m² | - |
| 1777497051 | 27.78° C | 85% | 1016.7 hPa | 0 mm | - | 107 W/m² | - |
| 1777496748 | 27.78° C | 85% | 1016.5 hPa | 0 mm | - | 122 W/m² | - |
| 1777496445 | 27.78° C | 85% | 1016.6 hPa | 0 mm | - | 144 W/m² | - |
| 1777496142 | 27.78° C | 85% | 1016.7 hPa | 0 mm | - | 162 W/m² | - |
| 1777495838 | 28.33° C | 84% | 1016.6 hPa | 0 mm | - | 166 W/m² | - |
| 1777495534 | 28.33° C | 84% | 1016.6 hPa | 0 mm | - | 156 W/m² | - |
| 1777495230 | 28.33° C | 84% | 1016.7 hPa | 0 mm | - | 152 W/m² | - |
| 1777494928 | 27.78° C | 83% | 1016.6 hPa | 0 mm | - | 165 W/m² | - |
| 1777494625 | 28.33° C | 84% | 1016.7 hPa | 0 mm | - | 147 W/m² | - |
| 1777494322 | 28.89° C | 82% | 1016.8 hPa | 0 mm | - | 166 W/m² | - |
| 1777494018 | 28.33° C | 82% | 1016.4 hPa | 0 mm | - | 244 W/m² | - |
| 1777493716 | 28.33° C | 83% | 1016.5 hPa | 0 mm | - | 270 W/m² | - |
| 1777493414 | 28.33° C | 83% | 1016.5 hPa | 0 mm | - | 238 W/m² | - |
| 1777493109 | 27.78° C | 84% | 1016.7 hPa | 0 mm | - | 232 W/m² | - |
| 1777492807 | 27.78° C | 85% | 1016.7 hPa | 0 mm | - | 175 W/m² | - |
| 1777492503 | 27.78° C | 86% | 1016.7 hPa | 0 mm | - | 132 W/m² | - |
| 1777492199 | 27.78° C | 86% | 1016.7 hPa | 0 mm | - | 143 W/m² | - |
* Rain latest hour (hover to see other rain measurements)
** Current wind speed in m/s (hover to see current wind gust speed)